CST,Max TemperatureF,Mean TemperatureF,Min TemperatureF,Max Dew PointF,MeanDew PointF,Min DewpointF,Max Humidity, Mean Humidity, Min Humidity, Max Sea Level PressureIn, Mean Sea Level PressureIn, Min Sea Level PressureIn, Max VisibilityMiles, Mean VisibilityMiles, Min VisibilityMiles, Max Wind SpeedMPH, Mean Wind SpeedMPH, Max Gust SpeedMPH,PrecipitationIn, CloudCover, Events, WindDirDegrees
2013-12-1,37,32,26,28,26,23,93,78,56,30.11,30.05,29.97,10,9,4,7,2,,0.00,4,,352
2013-12-2,39,30,21,32,27,19,100,85,70,29.97,29.86,29.79,10,7,1,15,2,20,0.03,5,Rain-Snow,110
2013-12-3,37,34,32,36,34,32,100,96,93,29.78,29.74,29.70,7,2,0,14,9,17,0.07,8,Fog-Rain-Snow,83
2013-12-4,50,42,35,46,39,32,100,93,76,29.77,29.61,29.43,10,2,0,20,6,31,0.00,8,Fog-Rain-Snow,118
2013-12-5,35,25,14,32,14,7,87,66,50,30.22,29.93,29.57,10,10,10,23,15,31,0.00,3,,260
2013-12-6,17,12,6,5,2,0,79,67,49,30.49,30.34,30.20,10,10,10,17,11,22,0.00,0,Snow,289
2013-12-7,14,8,1,0,-3,-6,78,65,45,30.64,30.58,30.49,10,10,10,15,8,18,0.00,0,,287
2013-12-8,26,16,5,23,10,-4,93,76,57,30.56,30.26,29.89,10,6,0,14,4,18,0.00,8,Snow,53
2013-12-9,26,13,0,23,5,-9,93,72,52,30.11,29.98,29.86,10,8,0,20,10,36,0.00,3,Snow,259
2013-12-10,17,6,-5,9,0,-9,84,67,57,30.20,30.01,29.87,10,9,2,24,10,33,0.00,5,Snow,242
2013-12-11,12,4,-4,9,-5,-13,85,63,48,30.47,30.36,30.20,10,9,3,18,8,24,0.00,2,Snow,275
2013-12-12,17,6,-4,9,-1,-13,78,64,57,30.43,30.25,30.14,10,10,3,15,8,23,0.00,4,Snow,240
2013-12-13,21,19,17,18,12,9,86,74,68,30.20,30.17,30.11,10,10,10,10,6,16,0.00,8,,14
2013-12-14,26,22,19,21,19,14,93,85,80,30.17,30.03,29.88,10,7,1,15,10,21,0.00,8,Snow,26
2013-12-15,19,10,0,16,0,-9,86,65,48,30.08,29.96,29.85,10,9,3,18,11,26,0.00,3,Snow,284
2013-12-16,19,8,-4,10,0,-9,86,70,45,30.11,30.04,29.94,10,9,1,10,5,,0.01,5,Snow,239
2013-12-17,32,23,14,25,17,10,93,77,60,30.01,29.90,29.84,10,8,0,17,11,26,0.00,7,Snow,261
2013-12-18,32,22,12,23,11,3,73,61,38,30.06,29.91,29.72,10,10,5,14,9,21,0.00,1,,223
2013-12-19,32,28,23,28,23,18,93,82,69,29.99,29.89,29.76,10,9,2,16,6,23,0.02,4,Snow,18
2013-12-20,30,26,23,27,23,21,100,88,80,29.87,29.82,29.78,10,7,2,13,8,17,0.00,8,Snow,1
2013-12-21,30,26,23,28,25,21,100,93,86,29.86,29.81,29.68,10,4,0,16,5,23,0.00,8,Fog,2
2013-12-22,30,26,21,27,22,18,93,87,80,30.06,29.84,29.66,10,5,0,14,9,20,0.10,8,Snow,341
2013-12-23,21,13,5,18,11,0,93,83,73,30.35,30.23,30.07,10,6,1,15,6,17,0.00,8,Snow,274
2013-12-24,15,6,-4,9,0,-8,85,75,57,30.48,30.40,30.27,10,8,2,10,5,,0.00,3,Snow,261
2013-12-25,23,18,12,19,15,9,93,83,74,30.27,30.11,30.02,10,5,2,13,8,16,0.00,8,Snow,222
2013-12-26,23,18,14,19,14,9,93,80,68,30.20,30.14,30.02,10,8,1,15,7,20,0.00,7,Snow,251
2013-12-27,35,20,5,27,19,3,93,80,69,30.23,30.10,29.95,10,7,0,18,4,25,0.00,2,Fog,217
2013-12-28,42,32,23,30,28,21,93,71,57,30.01,29.88,29.73,10,10,7,16,7,26,0.00,0,,213
2013-12-29,37,18,0,28,12,-8,93,71,58,30.17,29.93,29.70,10,10,3,18,10,25,0.00,4,,309
2013-12-30,3,-3,-9,-6,-12,-17,78,64,43,30.28,30.20,30.13,10,9,2,10,6,,0.00,3,Snow,276
2013-12-31,6,4,0,0,-4,-13,78,69,55,30.33,30.22,30.12,10,10,10,13,8,,0.00,7,Snow,278